BAW903 EDDF-EGLL

Flight info

Callsign BAW903
Flight time 1h 6m
Altitude 40000
Route OBOKA3D/07C OBOKA Z29 TORNU DCT ABNED L980 LOGAN
Aircraft B772/H-SDE2E3FGHIJ5LORVWXY/LB1D1

Departure

Time 2026-04-15 12:12
Airport Frankfurt Main Airport (EDDF)

Arrival

Time 2026-04-15 13:18
Airport London Heathrow Airport (EGLL)
Time Latitude Longitude Altitude Speed Heading
2026-04-15 11:42 50.04544 8.56744 360 ft 0 kts 295°
2026-04-15 12:02 50.04542 8.56750 368 ft 3 kts 295°
2026-04-15 12:03 50.04530 8.56788 365 ft 5 kts 295°
2026-04-15 12:03 50.04519 8.56826 364 ft 3 kts 295°
2026-04-15 12:03 50.04512 8.56855 363 ft 4 kts 258°
2026-04-15 12:03 50.04525 8.56880 363 ft 4 kts 199°
2026-04-15 12:04 50.04545 8.56889 363 ft 1 kts 193°
2026-04-15 12:04 50.04548 8.56890 363 ft 1 kts 193°
2026-04-15 12:06 50.04525 8.56881 366 ft 10 kts 193°
2026-04-15 12:06 50.04465 8.56860 366 ft 15 kts 187°
2026-04-15 12:07 50.04310 8.56816 368 ft 18 kts 191°
2026-04-15 12:07 50.04225 8.56686 365 ft 19 kts 249°
2026-04-15 12:07 50.04174 8.56477 359 ft 22 kts 249°
2026-04-15 12:07 50.04121 8.56252 356 ft 23 kts 250°
2026-04-15 12:08 50.04064 8.56015 360 ft 24 kts 250°
2026-04-15 12:08 50.04004 8.55768 357 ft 24 kts 249°
2026-04-15 12:08 50.03946 8.55522 361 ft 24 kts 250°
2026-04-15 12:08 50.03887 8.55276 357 ft 24 kts 249°
2026-04-15 12:09 50.03828 8.55029 358 ft 24 kts 250°
2026-04-15 12:09 50.03769 8.54783 356 ft 24 kts 250°
2026-04-15 12:09 50.03718 8.54570 359 ft 16 kts 249°
2026-04-15 12:09 50.03685 8.54433 356 ft 7 kts 250°
2026-04-15 12:10 50.03669 8.54364 356 ft 8 kts 250°
2026-04-15 12:10 50.03656 8.54315 355 ft 6 kts 239°
2026-04-15 12:10 50.03618 8.54304 346 ft 10 kts 160°
2026-04-15 12:10 50.03550 8.54345 348 ft 11 kts 159°
2026-04-15 12:11 50.03497 8.54414 347 ft 11 kts 96°
2026-04-15 12:11 50.03510 8.54492 352 ft 6 kts 70°
2026-04-15 12:11 50.03588 8.54826 353 ft 71 kts 70°
2026-04-15 12:11 50.03746 8.55483 360 ft 121 kts 70°
2026-04-15 12:12 50.04120 8.57037 430 ft 177 kts 69°
2026-04-15 12:12 50.04533 8.58780 1466 ft 163 kts 68°
2026-04-15 12:12 50.04917 8.60455 2390 ft 168 kts 70°
2026-04-15 12:12 50.05302 8.62302 2639 ft 192 kts 70°
2026-04-15 12:13 50.05773 8.64397 2882 ft 216 kts 70°
2026-04-15 12:13 50.06295 8.66759 3190 ft 243 kts 71°
2026-04-15 12:13 50.06904 8.69318 3716 ft 253 kts 64°
2026-04-15 12:13 50.08072 8.71436 4296 ft 264 kts 38°
2026-04-15 12:14 50.09670 8.72884 5044 ft 269 kts 27°
2026-04-15 12:14 50.11398 8.74071 5848 ft 273 kts 23°
2026-04-15 12:14 50.13169 8.75191 6631 ft 277 kts 23°
2026-04-15 12:14 50.14967 8.76345 7339 ft 280 kts 23°
2026-04-15 12:15 50.16785 8.77534 8011 ft 286 kts 23°
2026-04-15 12:15 50.18622 8.78760 8699 ft 289 kts 24°
2026-04-15 12:15 50.20466 8.80003 9294 ft 295 kts 23°
2026-04-15 12:15 50.22358 8.81266 10049 ft 296 kts 23°
2026-04-15 12:16 50.24288 8.82360 10568 ft 299 kts
2026-04-15 12:16 50.26439 8.82131 10756 ft 320 kts 340°
2026-04-15 12:16 50.28387 8.80305 10962 ft 337 kts 312°
2026-04-15 12:16 50.29560 8.77196 11585 ft 340 kts 287°
2026-04-15 12:17 50.30221 8.73563 12304 ft 346 kts 285°
2026-04-15 12:17 50.30919 8.69971 13260 ft 351 kts 287°
2026-04-15 12:17 50.31692 8.66323 14279 ft 354 kts 288°
2026-04-15 12:17 50.32496 8.62646 15256 ft 359 kts 288°
2026-04-15 12:18 50.33312 8.58926 16233 ft 364 kts 288°
2026-04-15 12:18 50.34136 8.55170 17173 ft 368 kts 288°
2026-04-15 12:18 50.34969 8.51340 18083 ft 373 kts 288°
2026-04-15 12:18 50.35803 8.47469 18964 ft 378 kts 288°
2026-04-15 12:19 50.36654 8.43534 19851 ft 383 kts 288°
2026-04-15 12:19 50.37496 8.39561 20665 ft 384 kts 285°
2026-04-15 12:19 50.37794 8.35374 21277 ft 393 kts 266°
2026-04-15 12:19 50.37199 8.31186 22038 ft 397 kts 253°
2026-04-15 12:20 50.36335 8.27032 22715 ft 404 kts 252°
2026-04-15 12:20 50.35457 8.22824 23529 ft 408 kts 253°
2026-04-15 12:20 50.34582 8.18579 24360 ft 411 kts 253°
2026-04-15 12:20 50.33706 8.14282 25108 ft 416 kts 253°
2026-04-15 12:21 50.32840 8.10001 25827 ft 420 kts 254°
2026-04-15 12:21 50.31948 8.05564 26494 ft 425 kts 254°
2026-04-15 12:21 50.31067 8.01185 27118 ft 429 kts 254°
2026-04-15 12:21 50.30164 7.96704 27750 ft 429 kts 255°
2026-04-15 12:22 50.29667 7.92133 28112 ft 431 kts 272°
2026-04-15 12:22 50.30055 7.87478 28607 ft 434 kts 287°
2026-04-15 12:22 50.31202 7.83134 29236 ft 433 kts 297°
2026-04-15 12:22 50.32545 7.78907 29828 ft 434 kts 296°
2026-04-15 12:23 50.33833 7.74612 30342 ft 437 kts 295°
2026-04-15 12:23 50.35157 7.70328 30714 ft 437 kts 302°
2026-04-15 12:23 50.37092 7.66633 31014 ft 443 kts 317°
2026-04-15 12:23 50.39641 7.63841 31412 ft 447 kts 333°
2026-04-15 12:24 50.42488 7.61919 31799 ft 449 kts 336°
2026-04-15 12:24 50.45386 7.60055 32185 ft 451 kts 336°
2026-04-15 12:24 50.48284 7.58141 32569 ft 453 kts 335°
2026-04-15 12:24 50.51185 7.56166 32924 ft 455 kts 335°
2026-04-15 12:25 50.54087 7.54161 33273 ft 456 kts 335°
2026-04-15 12:25 50.56960 7.52043 33608 ft 456 kts 330°
2026-04-15 12:25 50.59660 7.49459 33967 ft 456 kts 325°
2026-04-15 12:25 50.62275 7.46631 34377 ft 455 kts 324°
2026-04-15 12:26 50.64856 7.43800 34837 ft 453 kts 324°
2026-04-15 12:26 50.67467 7.41024 35313 ft 451 kts 325°
2026-04-15 12:26 50.70092 7.38313 35744 ft 449 kts 326°
2026-04-15 12:26 50.72668 7.35628 36117 ft 446 kts 322°
2026-04-15 12:27 50.74934 7.32278 36356 ft 447 kts 308°
2026-04-15 12:27 50.76534 7.28083 36607 ft 446 kts 296°
2026-04-15 12:27 50.77871 7.23645 36967 ft 445 kts 297°
2026-04-15 12:27 50.79227 7.19297 37482 ft 440 kts 297°
2026-04-15 12:28 50.80600 7.14997 37953 ft 436 kts 298°
2026-04-15 12:28 50.81972 7.10748 38358 ft 434 kts 298°
2026-04-15 12:28 50.83356 7.06472 38612 ft 435 kts 298°
2026-04-15 12:28 50.84728 7.02229 38865 ft 435 kts 298°
2026-04-15 12:29 50.85655 6.99349 39080 ft 435 kts 298°
2026-04-15 12:29 50.87473 6.93696 39413 ft 435 kts 297°
2026-04-15 12:29 50.88854 6.89407 39543 ft 439 kts 297°
2026-04-15 12:29 50.90243 6.85093 39739 ft 440 kts 297°
2026-04-15 12:30 50.91635 6.80768 39954 ft 441 kts 297°
2026-04-15 12:30 50.93027 6.76432 40119 ft 443 kts 297°
2026-04-15 12:30 50.94426 6.72066 40164 ft 446 kts 297°
2026-04-15 12:31 50.97226 6.63297 40203 ft 443 kts 297°
2026-04-15 12:31 51.00001 6.54577 40204 ft 442 kts 297°
2026-04-15 12:32 51.02750 6.45906 40203 ft 442 kts 296°
2026-04-15 12:32 51.05509 6.37172 40198 ft 443 kts 296°
2026-04-15 12:33 51.08269 6.28405 40192 ft 443 kts 296°
2026-04-15 12:33 51.11023 6.19630 40184 ft 443 kts 296°
2026-04-15 12:34 51.13679 6.10768 40180 ft 443 kts 291°
2026-04-15 12:34 51.15459 6.01382 40187 ft 443 kts 284°
2026-04-15 12:35 51.16968 5.91861 40143 ft 443 kts 284°
2026-04-15 12:35 51.18532 5.82395 40174 ft 442 kts 287°
2026-04-15 12:36 51.20771 5.73257 40180 ft 443 kts 292°
2026-04-15 12:36 51.23252 5.64222 40178 ft 445 kts 292°
2026-04-15 12:37 51.25694 5.55195 40169 ft 446 kts 292°
2026-04-15 12:37 51.28105 5.46066 40167 ft 446 kts 291°
2026-04-15 12:38 51.30488 5.36923 40160 ft 445 kts 291°
2026-04-15 12:38 51.32857 5.27789 40155 ft 444 kts 291°
2026-04-15 12:39 51.35219 5.18644 40157 ft 444 kts 291°
2026-04-15 12:39 51.37563 5.09539 40156 ft 444 kts 291°
2026-04-15 12:40 51.39907 5.00398 40159 ft 444 kts 290°
2026-04-15 12:40 51.42246 4.91236 40157 ft 444 kts 290°
2026-04-15 12:41 51.44577 4.82072 40156 ft 444 kts 290°
2026-04-15 12:41 51.46900 4.72901 40156 ft 444 kts 290°
2026-04-15 12:42 51.49205 4.63761 40157 ft 444 kts 290°
2026-04-15 12:42 51.51518 4.54557 40157 ft 445 kts 289°
2026-04-15 12:43 51.53825 4.45334 40158 ft 445 kts 289°
2026-04-15 12:43 51.56127 4.36096 40155 ft 445 kts 289°
2026-04-15 12:44 51.58420 4.26855 40159 ft 445 kts 289°
2026-04-15 12:44 51.60705 4.17606 40157 ft 445 kts 289°
2026-04-15 12:45 51.62982 4.08350 40156 ft 445 kts 289°
2026-04-15 12:45 51.65253 3.99083 40150 ft 445 kts 288°
2026-04-15 12:46 51.67514 3.89814 40147 ft 445 kts 288°
2026-04-15 12:46 51.69771 3.80524 40147 ft 445 kts 288°
2026-04-15 12:47 51.72020 3.71227 40137 ft 445 kts 288°
2026-04-15 12:47 51.74260 3.61926 40138 ft 445 kts 288°
2026-04-15 12:48 51.76481 3.52668 40130 ft 445 kts 288°
2026-04-15 12:48 51.78711 3.43330 40133 ft 446 kts 288°
2026-04-15 12:49 51.80935 3.33979 40128 ft 446 kts 288°
2026-04-15 12:49 51.83149 3.24605 40129 ft 446 kts 285°
2026-04-15 12:50 51.84274 3.16485 40133 ft 439 kts 273°
2026-04-15 12:50 51.84243 3.05140 40160 ft 435 kts 261°
2026-04-15 12:51 51.83535 2.95372 40036 ft 440 kts 261°
2026-04-15 12:51 51.83177 2.90399 39362 ft 443 kts 261°
2026-04-15 12:51 51.82849 2.85546 38763 ft 430 kts 261°
2026-04-15 12:51 51.82532 2.80752 38251 ft 427 kts 261°
2026-04-15 12:52 51.82220 2.75992 37771 ft 424 kts 260°
2026-04-15 12:52 51.81908 2.71280 37294 ft 421 kts 260°
2026-04-15 12:52 51.81595 2.66598 36827 ft 417 kts 260°
2026-04-15 12:52 51.81279 2.61958 36366 ft 414 kts 259°
2026-04-15 12:53 51.81069 2.58903 36069 ft 412 kts 259°
2026-04-15 12:53 51.80752 2.54322 35579 ft 410 kts 259°
2026-04-15 12:53 51.80435 2.49757 35088 ft 407 kts 259°
2026-04-15 12:53 51.80015 2.43758 34449 ft 405 kts 259°
2026-04-15 12:54 51.79699 2.39252 33972 ft 403 kts 259°
2026-04-15 12:54 51.79383 2.34774 33491 ft 400 kts 259°
2026-04-15 12:54 51.79170 2.31762 33167 ft 399 kts 259°
2026-04-15 12:54 51.78854 2.27320 32685 ft 397 kts 258°
2026-04-15 12:55 51.78538 2.22908 32201 ft 395 kts 258°
2026-04-15 12:55 51.78246 2.18511 31722 ft 393 kts 259°
2026-04-15 12:55 51.77988 2.14120 31242 ft 392 kts 260°
2026-04-15 12:55 51.77744 2.09810 30769 ft 390 kts 260°
2026-04-15 12:56 51.77493 2.05402 30282 ft 388 kts 260°
2026-04-15 12:56 51.77242 2.01078 29797 ft 386 kts 259°
2026-04-15 12:56 51.76990 1.96824 29296 ft 385 kts 259°
2026-04-15 12:56 51.76729 1.92462 28775 ft 385 kts 259°
2026-04-15 12:57 51.76472 1.88222 28260 ft 384 kts 259°
2026-04-15 12:57 51.76211 1.83935 27731 ft 383 kts 260°
2026-04-15 12:57 51.75948 1.79656 27235 ft 383 kts 260°
2026-04-15 12:57 51.75686 1.75394 26718 ft 382 kts 260°
2026-04-15 12:58 51.75422 1.71133 26217 ft 381 kts 260°
2026-04-15 12:58 51.75158 1.66893 25714 ft 380 kts 260°
2026-04-15 12:58 51.74893 1.62661 25214 ft 379 kts 260°
2026-04-15 12:58 51.74624 1.58435 24654 ft 379 kts 260°
2026-04-15 12:59 51.74076 1.49958 23506 ft 380 kts 260°
2026-04-15 12:59 51.73799 1.45709 22930 ft 381 kts 260°
2026-04-15 12:59 51.73521 1.41464 22353 ft 381 kts 260°
2026-04-15 13:00 51.73241 1.37210 21775 ft 381 kts 260°
2026-04-15 13:00 51.72961 1.32963 21197 ft 381 kts 260°
2026-04-15 13:00 51.72679 1.28715 20617 ft 381 kts 260°
2026-04-15 13:00 51.72394 1.24456 20034 ft 381 kts 260°
2026-04-15 13:01 51.72110 1.20221 19457 ft 380 kts 259°
2026-04-15 13:01 51.71824 1.15980 18878 ft 379 kts 259°
2026-04-15 13:01 51.71537 1.11759 18307 ft 379 kts 259°
2026-04-15 13:01 51.71250 1.07543 17734 ft 378 kts 259°
2026-04-15 13:02 51.70967 1.03398 17168 ft 377 kts 259°
2026-04-15 13:02 51.70689 0.99313 16579 ft 351 kts 259°
2026-04-15 13:02 51.70435 0.95559 16062 ft 325 kts 259°
2026-04-15 13:02 51.70189 0.92025 15684 ft 315 kts 258°
2026-04-15 13:03 51.69942 0.88518 15294 ft 315 kts 258°
2026-04-15 13:03 51.69693 0.84999 14902 ft 316 kts 258°
2026-04-15 13:03 51.69444 0.81474 14504 ft 317 kts 258°
2026-04-15 13:03 51.69197 0.77946 14109 ft 317 kts 258°
2026-04-15 13:04 51.68947 0.74407 13704 ft 318 kts 258°
2026-04-15 13:04 51.68695 0.70863 13314 ft 319 kts 258°
2026-04-15 13:04 51.68442 0.67307 12910 ft 319 kts 258°
2026-04-15 13:04 51.68189 0.63757 12506 ft 319 kts 258°
2026-04-15 13:05 51.67930 0.60193 12105 ft 321 kts 258°
2026-04-15 13:05 51.67673 0.56623 11701 ft 321 kts 258°
2026-04-15 13:05 51.67416 0.53063 11293 ft 315 kts 258°
2026-04-15 13:05 51.67175 0.49674 10902 ft 298 kts 258°
2026-04-15 13:06 51.66945 0.46487 10530 ft 275 kts 258°
2026-04-15 13:06 51.66731 0.43540 10182 ft 255 kts 257°
2026-04-15 13:06 51.66523 0.40742 9874 ft 253 kts 257°
2026-04-15 13:06 51.66304 0.37863 9588 ft 263 kts 257°
2026-04-15 13:07 51.66084 0.34927 9240 ft 264 kts 258°
2026-04-15 13:07 51.65869 0.32004 8918 ft 262 kts 258°
2026-04-15 13:07 51.65652 0.29095 8584 ft 261 kts 258°
2026-04-15 13:07 51.65435 0.26201 8254 ft 260 kts 257°
2026-04-15 13:08 51.65218 0.23313 7938 ft 259 kts 257°
2026-04-15 13:08 51.65002 0.20450 7642 ft 256 kts 257°
2026-04-15 13:08 51.64792 0.17671 7340 ft 245 kts 257°
2026-04-15 13:08 51.64400 0.15171 6997 ft 218 kts 238°
2026-04-15 13:09 51.63538 0.13218 6758 ft 213 kts 227°
2026-04-15 13:09 51.62538 0.11412 6524 ft 217 kts 225°
2026-04-15 13:09 51.61527 0.09634 6275 ft 213 kts 225°
2026-04-15 13:09 51.60536 0.07897 6048 ft 209 kts 226°
2026-04-15 13:10 51.59567 0.06187 5881 ft 204 kts 225°
2026-04-15 13:10 51.58604 0.04493 5638 ft 205 kts 225°
2026-04-15 13:10 51.57643 0.02806 5402 ft 204 kts 225°
2026-04-15 13:10 51.56685 0.01118 5209 ft 206 kts 226°
2026-04-15 13:11 51.55716 -0.00592 4994 ft 208 kts 225°
2026-04-15 13:11 51.54741 -0.02314 4777 ft 207 kts 226°
2026-04-15 13:11 51.53785 -0.03999 4557 ft 201 kts 226°
2026-04-15 13:11 51.52857 -0.05637 4342 ft 199 kts 225°
2026-04-15 13:12 51.51947 -0.07244 4151 ft 200 kts 225°
2026-04-15 13:12 51.50979 -0.08954 3936 ft 200 kts 226°
2026-04-15 13:12 51.50045 -0.10600 3736 ft 197 kts 225°
2026-04-15 13:12 51.49168 -0.12147 3514 ft 177 kts 225°
2026-04-15 13:13 51.48374 -0.13546 3333 ft 166 kts 224°
2026-04-15 13:13 51.47614 -0.14881 3162 ft 158 kts 224°
2026-04-15 13:13 51.47005 -0.16284 3034 ft 156 kts 248°
2026-04-15 13:13 51.46874 -0.18016 2995 ft 156 kts 255°
2026-04-15 13:14 51.46740 -0.19750 2945 ft 160 kts 254°
2026-04-15 13:14 51.46618 -0.21545 2722 ft 161 kts 259°
2026-04-15 13:14 51.46565 -0.23322 2505 ft 155 kts 258°
2026-04-15 13:14 51.46540 -0.25046 2337 ft 155 kts 262°
2026-04-15 13:15 51.46543 -0.26837 2121 ft 156 kts 262°
2026-04-15 13:15 51.46539 -0.28568 1894 ft 156 kts 263°
2026-04-15 13:15 51.46534 -0.30281 1711 ft 157 kts 263°
2026-04-15 13:15 51.46530 -0.32066 1474 ft 150 kts 263°
2026-04-15 13:16 51.46526 -0.33677 1286 ft 139 kts 264°
2026-04-15 13:16 51.46520 -0.35171 1141 ft 133 kts 264°
2026-04-15 13:16 51.46517 -0.36629 944 ft 130 kts 264°
2026-04-15 13:16 51.46506 -0.38087 780 ft 133 kts 264°
2026-04-15 13:17 51.46507 -0.39581 621 ft 134 kts 265°
2026-04-15 13:17 51.46508 -0.41070 451 ft 135 kts 263°
2026-04-15 13:17 51.46501 -0.42586 243 ft 136 kts 266°
2026-04-15 13:17 51.46496 -0.44081 105 ft 129 kts 266°
2026-04-15 13:18 51.46488 -0.45402 91 ft 97 kts 268°
2026-04-15 13:18 51.46484 -0.46128 93 ft 44 kts 269°
2026-04-15 13:18 51.46507 -0.46584 96 ft 38 kts 285°
2026-04-15 13:18 51.46575 -0.46830 93 ft 12 kts 309°
2026-04-15 13:19 51.46598 -0.46852 90 ft 0 kts 340°
2026-04-15 13:19 51.46605 -0.46855 91 ft 4 kts 349°
2026-04-15 13:20 51.46640 -0.46860 91 ft 4 kts 355°
2026-04-15 13:20 51.46688 -0.46860 91 ft 11 kts
2026-04-15 13:20 51.46745 -0.46947 93 ft 14 kts 275°
2026-04-15 13:20 51.46746 -0.47128 93 ft 18 kts 270°
2026-04-15 13:21 51.46746 -0.47343 92 ft 21 kts 270°
2026-04-15 13:21 51.46745 -0.47531 90 ft 17 kts 269°
2026-04-15 13:21 51.46743 -0.47735 90 ft 18 kts 269°
2026-04-15 13:21 51.46743 -0.47948 94 ft 20 kts 270°
2026-04-15 13:22 51.46742 -0.48181 95 ft 21 kts 270°
2026-04-15 13:22 51.46773 -0.48346 98 ft 16 kts 340°
2026-04-15 13:22 51.46883 -0.48355 93 ft 12 kts
2026-04-15 13:22 51.46982 -0.48356 95 ft 15 kts 359°
2026-04-15 13:23 51.47048 -0.48325 92 ft 7 kts 64°
2026-04-15 13:23 51.47049 -0.48265 92 ft 0 kts 89°
2026-04-15 13:23 51.47049 -0.48246 95 ft 3 kts 90°
2026-04-15 13:23 51.47049 -0.48227 93 ft 0 kts 90°